Weather in Ryatamak

Russia / Republic of Bashkortostan     54°04′45″N   53°31′51″E
temp.,
°C
wind,
m/s
gust,
m/s
humid.,
%
clouds,
%
prec.,
mm/h
press.,
hPa
HPBL,
m
28 february, sun
sun2823:000s3699100 4.1 998317
02:000sw2499100 1.4 998199
05:00−3wnw3497100 1.9 998121
08:00−6nnw479596 0.2 999210
11:00−9nnw579488 0.3 1001260
14:00−9nnw579497 0.1 1002363
17:00−10nnw589399 0.1 1005404
20:00−13nnw479599 0.1 1007183
1 march, mon
mon123:00−16nnw239689 0.1 101031
02:00−17nw239789 0.0 101226
05:00−17nw239792 0.1 101426
08:00−17nnw239786 0.1 101663
11:00−16nnw349582 0.1 1018240
14:00−15nnw349296 0.0 1019306
17:00−14nw249398 0.1 1020322
20:00−19nw11100100 0.0 102020
2 march, tue
tue223:00−21wsw2210092 0.0 102120
02:00−23sw239843 0.0 102020
05:00−23ssw339928 0.0 101843
08:00−22s3710076 0.0 1015172
11:00−17s7119688 0.1 1013321
14:00−12ssw81393100 0.3 1009490
17:00−10ssw81393100 0.8 1007603
20:00−8s71492100 0.6 1004604
3 march, wed
wed323:00−5ssw71492100 0.9 1002568
02:00−5ssw61294100 0.3 999449
05:00−4ssw4996100 0.6 998328
08:00−5wsw379798 0.3 998199
11:00−3w589499 0.6 999478
14:00−2nw5788100 0.1 1000671
17:00−3nw4792100 0.1 1002557
20:00−4nw489499 0.1 1003414
4 march, thu
thu423:00−6wnw489499 0.3 1005269
02:00−9wnw369697 0.1 1005111
05:00−9nw359595 0.1 100796
08:00−13wnw349655 0.0 100945
11:00−11wnw499337 0.0 1011292
14:00−8w489051 0.0 1012461
17:00−7sw699172 0.1 1012619
20:00−8sw71393100 0.1 1010479